Weather History for KRZN - March, 2014

Change the Weather History Date:

Saturday, March 22, 2014

  Actual Average Record
Temperature  
Mean Temperature 14 °F -  
Max Temperature 21 °F - - ()
Min Temperature 2 °F - - ()
Degree Days  
Heating Degree Days 51    
Moisture  
Dew Point 1 °F    
Average Humidity 62    
Maximum Humidity 75    
Minimum Humidity 46    
Precipitation  
Precipitation 0.00 in - - ()
Sea Level Pressure  
Sea Level Pressure 30.34 in    
Wind  
Wind Speed 12 mph (NW)    
Max Wind Speed 18 mph    
Max Gust Speed 25 mph    
Visibility 10 miles    
Events      
T = Trace of Precipitation, MM = Missing Value Source: NWS Daily Summary

Daily Weather History Graph

Daily Weather History Graph

Search for Another Location

Airport or City:

Trip Planner

Search our weather history database for the weather conditions in past years. The results will help you decide how hot, cold, wet, or windy it might be!

Date:

Astronomy

Mar. 22, 2014 Rise Set
Actual Time 7:08 AM CDT 7:24 PM CDT
Civil Twilight 6:38 AM CDT 7:54 PM CDT
Nautical Twilight 6:03 AM CDT 8:29 PM CDT
Astronomical Twilight 5:27 AM CDT 9:05 PM CDT
Moon 12:59 AM CDT (3/22) 10:37 AM CDT (3/22)
Length of Visible Light 13h 15m
Length of Day
12h 16m
Waning Gibbous, 65% of the Moon is Illuminated
Mar 22
Waning Gibbous
Mar 23
Last Quarter
Mar 30
New
Apr 7
First Quarter
Apr 15
Full

Hourly Weather History & Observations

Time (CDT) Temp. Windchill Dew Point Humidity Pressure Visibility Wind Dir Wind Speed Gust Speed Precip Events Conditions
12:10 AM 24.8 °F 12.4 °F 17.4 °F 74% 30.09 in 10.0 mi North 15.0 mph 25.3 mph N/A   Overcast
12:30 AM 23.9 °F 10.3 °F 16.7 °F 74% 30.11 in 10.0 mi NW 17.3 mph 23.0 mph N/A   Overcast
12:50 AM 21.7 °F 7.5 °F 14.7 °F 74% 30.13 in 10.0 mi NW 17.3 mph 24.2 mph N/A   Overcast
1:10 AM 19.2 °F 3.8 °F 12.0 °F 74% 30.15 in 10.0 mi NW 18.4 mph 25.3 mph N/A   Overcast
1:30 AM 17.4 °F 5.4 °F 10.2 °F 73% 30.15 in 10.0 mi NW 10.4 mph 19.6 mph N/A   Mostly Cloudy
1:50 AM 15.8 °F 2.7 °F 8.6 °F 73% 30.16 in 10.0 mi NNW 11.5 mph 20.7 mph N/A   Clear
2:10 AM 15.3 °F 1.4 °F 7.7 °F 72% 30.18 in 10.0 mi NW 12.7 mph 20.7 mph N/A   Clear
2:30 AM 14.4 °F 0.2 °F 7.3 °F 74% 30.19 in 10.0 mi NW 12.7 mph 17.3 mph N/A   Clear
2:50 AM 13.5 °F -2.1 °F 6.1 °F 72% 30.20 in 10.0 mi NW 15.0 mph - N/A   Clear
3:10 AM 12.7 °F -2.5 °F 5.0 °F 71% 30.20 in 10.0 mi NW 13.8 mph 18.4 mph N/A   Clear
3:30 AM 12.0 °F -2.7 °F 4.1 °F 71% 30.20 in 10.0 mi NNW 12.7 mph - N/A   Clear
3:50 AM 11.3 °F -2.9 °F 3.2 °F 70% 30.21 in 10.0 mi NW 11.5 mph - N/A   Clear
4:10 AM 10.4 °F -4.8 °F 2.8 °F 72% 30.22 in 10.0 mi NW 12.7 mph 17.3 mph N/A   Clear
4:30 AM 9.5 °F -5.9 °F 2.1 °F 72% 30.23 in 10.0 mi NW 12.7 mph 19.6 mph N/A   Clear
4:50 AM 9.1 °F -6.4 °F 1.4 °F 71% 30.24 in 10.0 mi NNW 12.7 mph 19.6 mph N/A   Clear
5:10 AM 8.6 °F -6.3 °F 1.0 °F 71% 30.25 in 10.0 mi NNW 11.5 mph - N/A   Clear
5:30 AM 7.7 °F -8.2 °F 0.1 °F 71% 30.26 in 10.0 mi NW 12.7 mph 17.3 mph N/A   Clear
5:50 AM 7.0 °F -9.1 °F -0.6 °F 71% 30.27 in 10.0 mi NW 12.7 mph - N/A   Clear
6:10 AM 6.3 °F -7.5 °F -1.1 °F 72% 30.28 in 10.0 mi NW 9.2 mph - N/A   Clear
6:30 AM 5.7 °F -9.9 °F -1.5 °F 72% 30.28 in 10.0 mi NNW 11.5 mph 16.1 mph N/A   Clear
6:50 AM 5.2 °F -9.8 °F -2.2 °F 72% 30.30 in 10.0 mi NNW 10.4 mph - N/A   Clear
7:10 AM 4.3 °F -10.9 °F -2.7 °F 73% 30.31 in 10.0 mi NW 10.4 mph - N/A   Clear
7:30 AM 4.1 °F -11.1 °F -3.1 °F 72% 30.32 in 10.0 mi NNW 10.4 mph - N/A   Clear
7:50 AM 4.1 °F -11.1 °F -3.3 °F 71% 30.33 in 10.0 mi NW 10.4 mph - N/A   Clear
8:10 AM 4.6 °F -11.3 °F -3.6 °F 69% 30.34 in 10.0 mi NW 11.5 mph 17.3 mph N/A   Clear
8:30 AM 4.8 °F -11.1 °F -4.0 °F 67% 30.35 in 10.0 mi NNW 11.5 mph 18.4 mph N/A   Clear
8:50 AM 5.5 °F -10.2 °F -3.8 °F 65% 30.35 in 10.0 mi NNW 11.5 mph 19.6 mph N/A   Clear
9:10 AM 6.1 °F -10.2 °F -3.8 °F 64% 30.36 in 10.0 mi North 12.7 mph 17.3 mph N/A   Clear
9:30 AM 6.8 °F -4.8 °F -3.6 °F 62% 30.37 in 10.0 mi NNW 6.9 mph - N/A   Clear
9:50 AM 7.2 °F -8.1 °F -3.1 °F 63% 30.37 in 10.0 mi NNW 11.5 mph - N/A   Clear
10:10 AM 8.4 °F -7.3 °F -3.1 °F 60% 30.37 in 10.0 mi NNW 12.7 mph - N/A   Clear
10:30 AM 9.9 °F -4.0 °F -2.2 °F 58% 30.37 in 10.0 mi North 10.4 mph - N/A   Clear
10:50 AM 10.4 °F -4.1 °F -2.2 °F 57% 30.38 in 10.0 mi NNW 11.5 mph 16.1 mph N/A   Clear
11:10 AM 11.3 °F -2.2 °F -2.0 °F 55% 30.38 in 10.0 mi NNW 10.4 mph 19.6 mph N/A   Clear
11:30 AM 11.7 °F -2.5 °F -2.4 °F 53% 30.38 in 10.0 mi NNW 11.5 mph 18.4 mph N/A   Clear
11:50 AM 12.6 °F -4.4 °F -0.9 °F 55% 30.38 in 10.0 mi NW 17.3 mph - N/A   Clear
12:10 PM 13.5 °F 3.3 °F -1.1 °F 52% 30.38 in 10.0 mi North 6.9 mph 16.1 mph N/A   Clear
12:30 PM 14.4 °F 1.6 °F -0.4 °F 52% 30.39 in 10.0 mi NNW 10.4 mph 17.3 mph N/A   Clear
12:50 PM 14.7 °F 1.4 °F -0.0 °F 52% 30.39 in 10.0 mi NW 11.5 mph 17.3 mph N/A   Clear
1:10 PM 14.9 °F 0.3 °F 0.3 °F 53% 30.38 in 10.0 mi NW 13.8 mph 19.6 mph N/A   Clear
1:30 PM 15.4 °F -0.1 °F 0.5 °F 52% 30.38 in 10.0 mi NW 16.1 mph 21.9 mph N/A   Clear
1:50 PM 16.5 °F 2.4 °F 0.1 °F 49% 30.38 in 10.0 mi NNW 13.8 mph 17.3 mph N/A   Clear
2:10 PM 16.7 °F 3.8 °F 1.0 °F 50% 30.37 in 10.0 mi NW 11.5 mph 16.1 mph N/A   Clear
2:30 PM 16.9 °F 4.1 °F 1.4 °F 51% 30.37 in 10.0 mi NNW 11.5 mph - N/A   Clear
2:50 PM 17.4 °F 4.1 °F 1.6 °F 50% 30.37 in 10.0 mi WNW 12.7 mph - N/A   Clear
3:10 PM 17.2 °F 3.3 °F 0.3 °F 48% 30.37 in 10.0 mi NW 13.8 mph 18.4 mph N/A   Clear
3:30 PM 17.6 °F 3.7 °F 1.0 °F 48% 30.37 in 10.0 mi North 13.8 mph 18.4 mph N/A   Clear
3:50 PM 17.2 °F 2.7 °F 0.9 °F 49% 30.37 in 10.0 mi NW 15.0 mph 20.7 mph N/A   Clear
4:10 PM 17.6 °F 2.2 °F 0.5 °F 47% 30.37 in 10.0 mi NNW 17.3 mph 20.7 mph N/A   Clear
4:30 PM 17.6 °F 3.7 °F 0.5 °F 47% 30.37 in 10.0 mi NNW 13.8 mph - N/A   Clear
4:50 PM 18.0 °F 4.2 °F 0.3 °F 46% 30.37 in 10.0 mi NNW 13.8 mph 20.7 mph N/A   Clear
5:10 PM 17.6 °F 4.3 °F 1.0 °F 48% 30.38 in 10.0 mi NW 12.7 mph 17.3 mph N/A   Clear
5:30 PM 17.6 °F 5.0 °F 0.5 °F 47% 30.38 in 10.0 mi NW 11.5 mph 18.4 mph N/A   Clear
5:50 PM 17.4 °F 5.4 °F 0.7 °F 48% 30.39 in 10.0 mi NW 10.4 mph 16.1 mph N/A   Clear
6:10 PM 16.7 °F 3.8 °F 0.9 °F 50% 30.39 in 10.0 mi NW 11.5 mph - N/A   Clear
6:30 PM 16.3 °F 4.9 °F 0.9 °F 51% 30.40 in 10.0 mi NW 9.2 mph 16.1 mph N/A   Clear
6:50 PM 15.8 °F 2.7 °F 0.7 °F 51% 30.40 in 10.0 mi NW 11.5 mph - N/A   Clear
7:10 PM 15.3 °F 3.5 °F 0.3 °F 52% 30.41 in 10.0 mi NW 9.2 mph - N/A   Clear
7:30 PM 14.0 °F 3.9 °F -0.0 °F 54% 30.41 in 10.0 mi NW 6.9 mph - N/A   Clear
7:50 PM 13.5 °F 4.4 °F -0.4 °F 54% 30.42 in 10.0 mi NNW 5.8 mph - N/A   Clear
8:10 PM 12.9 °F 5.2 °F -0.4 °F 55% 30.42 in 10.0 mi NNW 4.6 mph - N/A   Clear
8:30 PM 10.8 °F 2.7 °F -1.1 °F 59% 30.43 in 10.0 mi NW 4.6 mph - N/A   Clear
8:50 PM 10.2 °F 2.0 °F -1.1 °F 60% 30.44 in 10.0 mi NW 4.6 mph - N/A   Clear
9:10 PM 9.5 °F 3.0 °F -1.1 °F 62% 30.44 in 10.0 mi WNW 3.5 mph - N/A   Clear
9:30 PM 9.7 °F 1.4 °F -1.1 °F 62% 30.44 in 10.0 mi WNW 4.6 mph - N/A   Clear
9:50 PM 6.8 °F -2.0 °F -1.8 °F 68% 30.45 in 10.0 mi NW 4.6 mph - N/A   Clear
10:10 PM 7.3 °F -1.3 °F -1.3 °F 68% 30.45 in 10.0 mi WNW 4.6 mph - N/A   Clear
10:30 PM 5.0 °F -4.1 °F -2.6 °F 71% 30.45 in 10.0 mi WNW 4.6 mph - N/A   Clear
10:50 PM 4.8 °F -4.3 °F -2.4 °F 72% 30.46 in 10.0 mi NW 4.6 mph - N/A   Clear
11:10 PM 5.9 °F -4.5 °F -1.7 °F 71% 30.46 in 10.0 mi NW 5.8 mph - N/A   Clear
11:30 PM 4.1 °F -6.7 °F -3.3 °F 71% 30.46 in 10.0 mi NW 5.8 mph - N/A   Clear
11:50 PM 2.7 °F -6.8 °F -3.6 °F 75% 30.47 in 10.0 mi WNW 4.6 mph - N/A   Clear